Hourly Data Report for August 12, 2013

All times are specified in Local Standard Time (LST). Add 1 hour to adjust for Daylight Saving Time where and when it is observed.

VICTORIA INTL A
BRITISH COLUMBIA

48°38'50.000" N
123°25'33.000" W
19.50 m
1018621
71799
YYJ

Download Data

Hourly Data (August 2013)
Hourly Data Report for August 12, 2013
Temp Definition
°C
Dew Point Temp Definition
°C
Rel Hum Definition
%
Wind Dir Definition
10's deg

Wind Spd Definition
km/h
Visibility Definition
km
Stn Press Definition
kPa
Hmdx Definition


Wind Chill Definition


Weather Definition


TIME
00:00 13.0 11.3 89 1 2 48.3 101.43     LegendNANA
01:00 12.3 10.9 91 33 5 48.3 101.41     Mainly Clear
02:00 12.4 11.3 93 13 6 48.3 101.38     LegendNANA
03:00 12.7 11.3 91 14 7 48.3 101.41     LegendNANA
04:00 12.4 11.3 93 6 5 48.3 101.44     Cloudy
05:00 12.6 11.4 92 11 7 48.3 101.48     LegendNANA
06:00 12.5 11.4 93 11 8 48.3 101.49     LegendNANA
07:00 14.5 11.9 84 8 5 24.1 101.49     Mostly Cloudy
08:00 14.5 11.7 83 11 13 24.1 101.52     LegendNANA
09:00 15.2 11.8 80 9 17 32.2 101.58     LegendNANA
10:00 15.8 12.0 78 12 16 32.2 101.58     Mostly Cloudy
11:00 17.0 12.6 75 9 12 32.2 101.59     LegendNANA
12:00 17.8 13.0 73 9 11 32.2 101.57     LegendNANA
13:00 18.5 12.6 68 11 15 32.2 101.57     Mostly Cloudy
14:00 18.3 12.4 68 11 13 32.2 101.57     LegendNANA
15:00 19.3 12.2 63 12 9 32.2 101.52     LegendNANA
16:00 20.3 12.4 60 11 10 32.2 101.47     Mainly Clear
17:00 19.6 12.5 63 12 10 32.2 101.43     LegendNANA
18:00 19.4 12.5 64 11 8 32.2 101.42     LegendNANA
19:00 16.3 11.9 75 12 8 32.2 101.43     Clear
20:00 15.4 11.8 79 5 5 32.2 101.46     LegendNANA
21:00 15.2 11.8 80 4 3 48.3 101.48     LegendNANA
22:00 13.8 11.7 87 26 5 48.3 101.52     Clear
23:00 15.0 12.5 85 24 9 48.3 101.53     LegendNANA

Notes on Data Quality.

Legend

  • E = Estimated
  • M = Missing
  • NA = Not Available
Date modified: